FW5468 Weather Reports


time (UTC)temp
C
wind
direction
speed
KPH
gust
KPH
rain 1hr
cm
rain 24hr
cm
rain mn
cm
humidity
%
barometer
mb
20260510190022 28 4 3.2 14.5 0.00 0.00 0.00 48 1015.1
20260510184606 27 44 1.6 6.4 0.00 0.00 0.00 49 1015.1
20260510183036 27 291 1.6 14.5 0.00 0.00 0.00 50 1014.9
20260510181600 27 326 4.8 9.7 0.00 0.00 0.00 53 1015.0
20260510180040 27 339 3.2 6.4 0.00 0.00 0.00 49 1015.1
20260510174527 26 10 3.2 12.9 0.00 0.00 0.00 52 1015.2
20260510173102 27 27 6.4 14.5 0.00 0.00 0.00 53 1015.5
20260510171531 26 91 6.4 16.1 0.00 0.00 0.00 57 1015.6
20260510170101 26 8 11.3 19.3 0.00 0.00 0.00 56 1015.7
20260510164533 25 339 8.0 17.7 0.00 0.00 0.00 59 1015.8
20260510163102 25 10 1.6 11.3 0.00 0.00 0.00 64 1015.7
20260510161552 25 26 8.0 16.1 0.00 0.00 0.00 61 1015.7
20260510160004 24 45 0.0 8.0 0.00 0.00 0.00 67 1015.8
20260510154559 23 265 1.6 9.7 0.00 0.00 0.00 66 1015.7
20260510153033 22 217 0.0 3.2 0.00 0.00 0.00 69 1015.7
20260510151601 22 73 1.6 4.8 0.00 0.00 0.00 75 1015.4
20260510150056 21 213 0.0 4.8 0.00 0.00 0.00 75 1015.4
20260510144504 21 299 0.0 4.8 0.00 0.00 0.00 76 1015.4
20260510143057 20 308 1.6 6.4 0.00 0.00 0.00 76 1015.5
20260510141538 20 146 1.6 3.2 0.00 0.00 0.00 81 1015.4
20260510134602 18 16 0.0 4.8 0.00 0.00 0.00 83 1015.4
20260510133132 17 164 0.0 4.8 0.00 0.00 0.00 84 1015.3
20260510131546 17 284 0.0 3.2 0.00 0.00 0.00 87 1015.5
20260510130010 16 299 0.0 4.8 0.00 0.00 0.00 88 1015.4
20260510124605 16 335 3.2 8.0 0.00 0.00 0.00 91 1015.4
20260510123045 15 343 0.0 4.8 0.00 0.00 0.00 93 1015.1
20260510121510 13 354 4.8 8.0 0.00 0.00 0.00 93 1015.0
20260510120103 12 157 0.0 0.0 0.00 0.00 0.00 93 1014.5
20260510114603 12 157 0.0 0.0 0.00 0.00 0.00 92 1014.3
20260510113003 12 139 0.0 0.0 0.00 0.00 0.00 91 1014.1
20260510111611 12 116 0.0 0.0 0.00 0.00 0.00 91 1013.7
20260510110041 12 68 0.0 0.0 0.00 0.00 0.00 90 1013.4
20260510104620 12 68 0.0 0.0 0.00 0.00 0.00 90 1013.1
20260510103035 12 68 0.0 0.0 0.00 0.00 0.00 90 1013.0
20260510101507 12 122 0.0 0.0 0.00 0.00 0.00 90 1012.8
20260510094528 12 191 0.0 0.0 0.00 0.00 0.00 89 1012.4
20260510093128 12 191 0.0 0.0 0.00 0.00 0.00 89 1012.2
20260510091547 12 191 0.0 0.0 0.00 0.00 0.00 88 1012.5
20260510090112 12 192 0.0 0.0 0.00 0.00 0.00 88 1012.5
20260510084544 12 192 0.0 0.0 0.00 0.00 0.00 88 1012.0
20260510083038 12 193 0.0 0.0 0.00 0.00 0.00 87 1011.8
20260510081625 13 192 0.0 0.0 0.00 0.00 0.00 87 1011.7
20260510080157 13 192 0.0 1.6 0.00 0.00 0.00 86 1011.5
20260510074517 13 212 0.0 0.0 0.00 0.00 0.00 85 1011.5
20260510073030 13 213 0.0 3.2 0.00 0.00 0.00 85 1011.8
20260510071557 13 216 0.0 1.6 0.00 0.00 0.00 86 1011.9
20260510070043 13 162 0.0 0.0 0.00 0.00 0.00 87 1011.9
20260510064610 13 151 0.0 0.0 0.00 0.00 0.00 86 1011.6
20260510063101 14 151 0.0 0.0 0.00 0.00 0.00 85 1011.3
20260510061537 14 149 0.0 1.6 0.00 0.00 0.00 85 1011.3
20260510060002 15 222 0.0 0.0 0.00 0.00 0.00 84 1011.3
20260510054606 15 201 0.0 0.0 0.00 0.00 0.00 83 1011.4
20260510053042 15 201 0.0 0.0 0.00 0.00 0.00 82 1011.3
20260510051507 15 158 0.0 0.0 0.00 0.00 0.00 82 1011.3
20260510050100 15 158 0.0 0.0 0.00 0.00 0.00 82 1011.3
20260510044509 16 157 0.0 0.0 0.00 0.00 0.00 82 1011.3
20260510043104 16 158 0.0 0.0 0.00 0.00 0.00 80 1011.4
20260510041557 16 158 0.0 0.0 0.00 0.00 0.00 79 1011.4
20260510040035 17 160 0.0 0.0 0.00 0.00 0.00 78 1011.4
20260510034611 17 160 0.0 0.0 0.00 0.00 0.00 77 1011.3
20260510033121 18 149 0.0 0.0 0.00 0.00 0.00 74 1011.3
20260510031547 18 160 0.0 0.0 0.00 0.00 0.00 69 1011.4
20260510030032 18 160 0.0 1.6 0.00 0.00 0.00 67 1011.4
20260510024608 19 162 0.0 0.0 0.00 0.00 0.00 64 1011.2
20260510023054 20 160 0.0 0.0 0.00 0.00 0.00 63 1011.1
20260510021542 20 161 0.0 0.0 0.00 0.00 0.00 59 1010.8
20260510020107 21 161 0.0 0.0 0.00 0.00 0.00 58 1010.6
20260510014556 21 160 0.0 0.0 0.00 0.00 0.00 57 1010.3
20260510013013 22 161 0.0 1.6 0.00 0.00 0.00 57 1010.2
20260510011601 22 207 0.0 1.6 0.00 0.00 0.00 56 1010.1
20260510010100 23 170 0.0 1.6 0.00 0.00 0.00 54 1009.9
20260510004512 23 170 0.0 1.6 0.00 0.00 0.00 53 1009.9
20260510003109 24 163 0.0 1.6 0.00 0.00 0.00 52 1009.6
20260510001552 25 179 0.0 3.2 0.00 0.00 0.00 50 1009.6
20260510000010 25 154 1.6 4.8 0.00 0.00 0.00 46 1009.6
20260509234612 26 144 0.0 4.8 0.00 0.00 0.00 44 1009.5
20260509233038 27 90 0.0 4.8 0.00 0.00 0.00 38 1009.4
20260509231513 27 113 0.0 4.8 0.00 0.00 0.00 38 1009.2
20260509230108 28 114 0.0 6.4 0.00 0.00 0.00 35 1009.2
20260509224551 29 4 0.0 6.4 0.00 0.00 0.00 36 1009.2
20260509223019 28 93 0.0 4.8 0.00 0.00 0.00 32 1009.2
20260509221610 28 15 4.8 8.0 0.00 0.00 0.00 33 1009.2
20260509220105 28 87 3.2 6.4 0.00 0.00 0.00 37 1009.1
20260509214553 28 97 3.2 8.0 0.00 0.00 0.00 35 1009.2
20260509213040 28 89 0.0 8.0 0.00 0.00 0.00 34 1009.1
20260509211506 28 12 1.6 12.9 0.00 0.00 0.00 38 1009.0
20260509204547 28 103 0.0 6.4 0.00 0.00 0.00 42 1008.9
20260509203008 27 10 6.4 14.5 0.00 0.00 0.00 41 1009.0
20260509201559 27 339 6.4 12.9 0.00 0.00 0.00 38 1009.1
20260509200014 28 350 3.2 9.7 0.00 0.00 0.00 42 1009.4
20260509194628 27 348 6.4 14.5 0.00 0.00 0.00 45 1009.6
20260509193044 27 22 0.0 14.5 0.00 0.00 0.00 47 1009.5
20260509191629 27 60 0.0 6.4 0.00 0.00 0.00 55 1009.7